Location: Austin
(30.3000°N, 97.7500°W)
Time: 21:55:46
(UTC-06:00)

Cosmos 2034 Rocket - Pass Details

Date: 03 December 2025
Orbit: 958 x 998 km, 82.9° (Epoch: 07 December)

Event Time Altitude Azimuth Distance (km) Brightness Sun altitude
Exits shadow 05:06:44 60° 251° (WSW) 1,124 4.0 -26.4°
Drops below altitude 10° 05:12:32 10° 189° (S) 2,737 6.4 -25.2°
Sets 05:15:03 0° 186° (S) 3,677 7.1 -24.6°
